Helicity
131 136 153 156 152 159 153 133 129 160 188 184 209 198 235 242 227 236 227 217 198 216 206 207 199 161 171 169 208 174 251 196 194 169 145 152 143 144
127 117 137 172 181 161 171 150 126 104 129 181 190 192 231 238 214 242 223 206 179 202 186 190 154 105 95 70 147 169 126 153 168 170 233 206 205 266
101 99 130 130 157 140 153 143 126 112 95 120 163 180 207 202 198 203 178 217 168 143 136 142 126 129 116 104 135 135 136 117 159 216 312 271 268 295
83 86 83 108 111 131 156 127 132 116 135 103 142 199 221 242 217 214 195 180 147 120 101 112 118 127 144 124 112 107 115 99 149 196 291 335 327 330
71 94 119 117 96 132 150 139 136 141 131 144 148 181 197 264 246 186 169 165 186 162 133 141 120 149 120 101 107 132 104 119 156 206 391 443 383 282
39 60 95 98 86 107 142 136 120 130 133 141 186 117 164 211 225 177 141 156 146 167 180 198 137 131 107 100 97 102 126 119 128 244 359 331 290 222
58 66 53 90 72 70 127 124 157 151 122 79 50 52 112 131 148 148 136 144 151 213 178 202 169 151 151 114 98 115 159 123 142 252 357 266 265 219
36 87 79 71 61 53 72 117 146 131 112 122 115 85 99 110 160 136 131 174 130 146 156 180 167 136 167 161 148 143 137 184 302 420 514 350 273 139
35 44 49 75 99 116 104 59 77 97 104 115 116 84 73 113 156 184 191 169 129 133 171 160 156 222 227 259 286 267 325 349 336 289 304 178 118 142
48 74 74 54 53 30 52 132 172 160 109 103 75 76 96 106 142 138 126 181 244 273 294 225 229 241 288 287 277 219 149 144 166 170 139 126 142 129
29 59 96 79 88 89 168 240 253 260 264 303 315 265 226 195 135 194 202 313 253 257 278 208 241 236 280 281 262 228 145 178 167 158 141 143 145 155
63 74 105 74 85 57 83 155 194 159 166 196 282 367 363 326 273 209 181 267 237 217 332 241 252 281 265 319 236 117 87 122 123 121 131 146 148 160
82 71 74 102 70 86 85 68 65 101 141 153 199 224 305 356 363 337 298 197 284 244 301 157 190 184 138 123 125 152 131 151 162 158 159 146 131 112
69 74 86 132 159 168 120 115 117 100 109 122 112 133 165 208 275 244 228 255 261 219 235 169 127 126 99 117 116 146 176 175 143 117 128 125 127 114
85 78 99 119 137 142 131 135 117 100 101 116 121 141 130 128 108 112 102 126 184 155 142 162 138 132 143 143 141 141 125 133 133 145 136 144 125 125
76 79 94 123 147 144 149 148 116 100 91 93 82 79 93 108 122 99 98 110 145 153 145 158 138 99 102 117 107 106 109 123 133 132 122 118 113 106
74 88 92 107 130 143 150 141 132 128 122 96 104 100 101 106 128 112 114 120 110 104 126 116 107 99 106 101 111 108 114 121 121 119 114 108 97 96
97 104 104 99 103 108 120 131 128 125 120 124 126 119 106 113 130 137 129 116 114 113 117 118 122 109 121 107 82 98 117 118 128 116 99 99 109 100
107 103 111 106 109 116 120 121 128 133 130 135 131 130 135 142 141 153 154 139 142 124 124 116 121 102 118 130 109 74 108 101 92 108 98 102 95 95
130 118 120 118 113 116 109 100 113 127 121 118 128 137 138 113 127 129 130 130 141 142 148 139 134 108 92 84 100 87 110 103 101 94 115 132 112 80
156 141 118 121 119 117 114 113 110 108 96 102 113 118 128 119 125 123 113 107 102 101 114 108 87 113 78 87 108 112 91 96 97 92 93 99 94 85
158 149 134 122 113 110 110 112 105 92 90 102 107 116 125 125 126 128 128 124 121 105 93 94 100 114 115 105 104 126 154 161 141 111 79 51 78 79
151 153 146 140 131 115 107 99 106 113 120 127 131 134 136 140 133 127 123 122 114 111 110 119 121 126 108 101 104 110 120 133 151 165 146 88 59 66
Wind_Speed
62 62 60 62 60 63 68 79 87 96 89 80 77 71 68 67 67 65 66 69 71 69 66 67 67 67 68 65 58 54 50 60 55 51 51 52 48 42
62 61 59 59 61 60 65 69 68 77 93 80 76 68 62 64 66 67 68 68 66 65 65 71 75 76 72 75 72 73 67 61 59 52 55 48 43 44
58 57 56 54 59 60 65 67 68 68 76 84 77 73 70 69 68 67 65 63 67 67 67 69 73 74 78 79 73 70 68 64 57 56 47 49 45 46
64 63 65 59 61 63 64 66 67 66 71 80 75 72 69 65 65 68 68 70 70 71 73 75 72 73 72 73 72 68 63 57 57 47 43 43 48 46
70 63 61 54 55 55 58 60 59 61 63 68 72 68 69 66 63 62 64 68 70 75 75 72 78 80 79 80 76 65 60 64 51 43 41 39 39 41
73 78 58 57 55 50 49 50 52 53 57 60 64 65 62 57 61 62 64 62 66 63 66 66 70 70 73 72 72 69 63 55 52 44 41 38 36 37
72 65 57 51 53 48 45 44 42 45 50 61 74 72 65 62 56 60 64 68 66 59 58 62 62 66 70 72 73 71 66 58 61 46 34 32 35 33
74 64 54 43 52 44 30 26 26 28 37 55 68 79 70 62 56 55 60 60 69 54 54 63 59 65 65 66 70 70 65 64 56 38 40 31 29 28
63 57 52 48 51 52 44 22 22 28 35 55 55 60 70 65 56 56 51 58 69 63 54 57 53 51 52 51 55 48 42 35 32 28 28 29 25 27
58 54 50 51 51 47 35 30 30 44 48 47 50 61 59 59 51 51 49 51 54 50 49 55 44 47 44 43 41 35 27 22 19 22 24 27 25 24
53 53 48 44 45 40 33 27 25 36 40 38 39 45 50 51 51 46 51 44 55 52 45 43 44 40 45 43 36 34 26 27 26 25 24 22 22 27
45 48 46 40 38 37 35 32 27 31 32 37 39 42 43 42 38 37 36 38 36 41 49 50 43 42 38 38 28 23 22 24 27 28 27 27 28 29
37 39 40 37 36 37 37 37 31 24 27 29 30 30 31 30 28 29 28 23 29 30 41 39 28 26 29 22 29 26 26 28 29 33 35 35 37 38
35 32 31 33 33 34 32 31 30 28 29 30 32 29 30 30 30 30 26 26 25 23 28 26 24 29 32 31 30 28 31 32 34 34 36 38 39 42
32 29 29 29 29 31 31 30 30 28 27 27 28 29 31 31 29 27 26 26 27 28 30 27 24 27 29 29 33 34 35 41 39 37 39 41 45 48
27 31 29 28 28 28 29 30 29 27 26 25 25 27 28 29 28 27 25 26 26 28 31 31 30 27 29 29 30 33 35 37 43 48 49 51 52 53
26 29 30 30 28 27 27 27 27 26 25 25 25 26 28 29 30 30 30 29 26 28 32 35 34 33 33 34 38 39 42 45 48 51 53 56 56 58
33 34 33 31 29 27 26 26 26 26 26 26 28 29 29 30 31 32 31 30 30 33 36 40 41 39 40 39 37 40 43 47 51 54 58 64 66 61
36 35 32 31 30 27 25 26 27 27 26 27 28 29 31 32 34 35 36 36 37 39 41 43 43 44 47 49 47 37 50 59 59 64 62 64 69 70
32 31 30 28 26 26 25 24 25 26 27 28 29 31 33 32 35 37 39 40 41 42 43 42 46 48 49 51 52 52 58 61 63 68 71 71 71 72
30 28 26 26 24 23 23 23 24 27 28 29 31 32 33 33 35 38 39 40 41 44 46 48 49 49 49 49 56 60 60 61 64 70 72 76 77 75
29 26 22 22 22 22 23 23 25 26 27 29 30 31 33 34 37 39 40 43 44 45 48 50 49 52 54 57 64 67 69 67 67 69 69 69 73 78
28 24 22 22 21 21 22 23 25 28 28 29 32 34 35 38 40 42 43 44 46 47 49 52 54 56 59 61 65 68 72 74 75 77 75 69 70 77
Wind_Direction
290 287 285 285 285 286 286 284 281 282 280 281 279 276 274 272 270 271 272 272 267 266 265 268 270 273 274 273 272 268 267 277 274 273 276 281 282 281
292 288 284 285 286 286 286 286 283 281 282 280 280 280 274 273 273 273 274 272 269 266 267 271 275 277 277 277 279 280 278 277 277 273 272 270 271 277
295 291 286 287 287 287 287 286 285 282 280 283 281 279 276 273 272 274 274 275 274 271 269 274 276 279 280 280 283 283 279 278 276 276 263 263 266 273
297 293 290 292 289 288 288 287 287 285 283 283 281 277 276 274 274 270 271 273 273 274 275 276 277 280 282 281 281 284 281 279 279 271 257 254 267 272
297 292 292 291 292 292 291 291 291 289 284 283 282 279 276 275 274 274 274 274 274 276 276 277 276 280 280 281 280 282 281 280 278 258 245 255 261 274
301 290 291 292 294 294 294 294 293 293 292 287 279 281 279 275 275 275 275 274 277 279 278 279 281 280 278 281 280 280 281 280 275 248 241 250 258 274
310 301 296 294 296 296 295 297 297 296 292 286 282 277 280 281 278 281 279 277 277 279 282 283 284 284 284 282 280 281 282 279 276 263 231 246 267 275
312 306 304 304 303 300 285 277 290 298 297 292 287 277 278 282 285 285 283 279 278 280 285 283 288 285 289 287 286 284 282 278 267 261 254 248 264 272
325 318 311 309 308 305 310 300 294 301 301 296 292 285 276 282 290 286 281 281 281 285 287 288 292 288 294 294 294 290 288 280 271 263 261 257 266 273
332 328 322 311 309 311 318 319 319 309 305 303 294 284 287 288 290 287 286 285 290 292 292 289 292 289 290 296 292 291 295 287 277 275 270 270 278 281
344 335 332 332 319 322 324 325 325 314 318 317 313 308 300 297 291 284 281 280 286 291 296 297 291 286 288 284 292 292 289 290 287 284 287 292 292 295
348 349 347 351 350 350 351 343 327 323 326 317 325 319 312 311 304 297 292 284 290 294 293 285 278 280 290 294 300 304 310 317 313 304 301 299 300 303
338 346 352 352 355 358 4 15 17 351 354 3 355 347 341 340 329 323 324 318 308 308 294 288 295 287 292 302 294 321 315 311 309 308 306 306 303 303
324 337 345 348 352 358 359 1 9 5 4 12 17 2 2 346 338 345 347 353 358 345 338 308 308 297 291 291 301 313 310 315 317 316 315 313 312 308
315 323 333 340 345 347 349 347 345 349 359 358 355 355 354 345 350 355 354 359 357 355 344 338 322 312 311 306 301 306 310 311 315 313 315 312 308 305
310 312 320 329 338 344 345 349 354 358 2 3 8 6 2 357 355 355 6 3 1 345 345 340 331 326 316 319 318 315 315 312 310 308 307 306 305 305
301 305 309 314 322 331 338 342 344 346 351 355 355 354 352 351 349 346 345 344 344 340 335 332 331 330 324 319 313 312 311 309 309 308 307 305 305 305
291 293 297 303 307 316 324 331 336 339 338 338 337 336 338 340 340 339 341 341 338 333 328 325 324 322 320 321 320 316 315 314 313 311 308 304 303 306
286 287 292 296 301 309 316 321 320 329 334 336 337 337 336 337 334 332 332 332 329 327 326 325 324 319 314 310 315 318 315 311 311 309 309 307 304 304
284 286 289 294 300 304 311 315 321 327 332 333 334 335 335 335 333 332 332 330 328 326 325 328 324 322 317 314 313 313 315 313 312 309 308 307 306 305
279 285 290 293 298 305 311 316 320 322 324 326 330 331 332 334 332 331 332 332 328 323 320 319 321 323 321 319 313 312 314 315 313 310 309 307 306 306
277 281 288 294 298 303 308 313 318 323 326 327 329 331 331 332 329 328 330 326 327 324 320 319 321 321 317 314 312 312 312 314 315 314 311 307 305 303
274 280 285 291 298 304 310 314 318 319 324 327 325 327 329 326 327 326 326 325 325 323 322 320 319 319 316 315 313 313 312 312 313 312 312 313 310 308